Time,TemperatureF,DewpointF,PressureIn,WindDirection,WindDirectionDegrees,WindSpeedMPH,WindSpeedGustMPH,Humidity,HourlyPrecipIn,Conditions,Clouds,dailyrainin,SoftwareType,DateUTC
2013-11-12 00:22:00,19.0,8.0,30.66,NNE,12,1.0,5.0,62,0.00,,,0.00,,2013-11-12 06:22:00,
2013-11-12 00:52:00,18.0,8.0,30.68,NE,50,0.0,2.0,63,0.00,,,0.00,,2013-11-12 06:52:00,
2013-11-12 01:21:00,18.0,8.0,30.68,WNW,290,0.0,2.0,64,0.00,,,0.00,,2013-11-12 07:21:00,
2013-11-12 01:42:00,18.0,9.0,30.68,NE,38,1.0,2.0,66,0.00,,,0.00,,2013-11-12 07:42:00,
2013-11-12 01:52:00,18.0,9.0,30.68,NE,48,0.0,2.0,66,0.00,,,0.00,,2013-11-12 07:52:00,
2013-11-12 02:21:00,17.0,8.0,30.70,NW,305,1.0,3.0,68,0.00,,,0.00,,2013-11-12 08:21:00,
2013-11-12 02:52:00,17.0,8.0,30.69,NNE,23,1.0,2.0,68,0.00,,,0.00,,2013-11-12 08:52:00,
2013-11-12 03:21:00,16.0,8.0,30.71,North,9,0.0,3.0,69,0.00,,,0.00,,2013-11-12 09:21:00,
2013-11-12 03:53:00,16.0,8.0,30.72,NE,36,0.0,0.0,70,0.00,,,0.00,,2013-11-12 09:53:00,
2013-11-12 04:23:00,15.0,7.0,30.73,ENE,65,0.0,1.0,71,0.00,,,0.00,,2013-11-12 10:23:00,
2013-11-12 04:53:00,15.0,7.0,30.75,North,4,0.0,3.0,71,0.00,,,0.00,,2013-11-12 10:53:00,
2013-11-12 05:22:00,15.0,7.0,30.74,North,5,0.0,2.0,71,0.00,,,0.00,,2013-11-12 11:22:00,
2013-11-12 05:52:00,14.0,7.0,30.75,North,5,0.0,1.0,72,0.00,,,0.00,,2013-11-12 11:52:00,
2013-11-12 06:21:00,14.0,7.0,30.75,WNW,288,0.0,0.0,74,0.00,,,0.00,,2013-11-12 12:21:00,
2013-11-12 06:52:00,14.0,7.0,30.74,WSW,258,0.0,1.0,73,0.00,,,0.00,,2013-11-12 12:52:00,
2013-11-12 07:22:00,14.0,7.0,30.76,WSW,255,0.0,0.0,74,0.00,,,0.00,,2013-11-12 13:22:00,
2013-11-12 07:42:00,15.0,8.0,30.76,West,275,0.0,1.0,73,0.00,,,0.00,,2013-11-12 13:42:00,
2013-11-12 07:52:00,15.0,8.0,30.76,WSW,254,1.0,3.0,73,0.00,,,0.00,,2013-11-12 13:52:00,
2013-11-12 08:22:00,15.0,8.0,30.76,WSW,256,0.0,1.0,73,0.00,,,0.00,,2013-11-12 14:22:00,
2013-11-12 08:52:00,15.0,8.0,30.76,WSW,252,0.0,2.0,72,0.00,,,0.00,,2013-11-12 14:52:00,
2013-11-12 09:21:00,17.0,9.0,30.77,WNW,297,1.0,5.0,69,0.00,,,0.00,,2013-11-12 15:21:00,
2013-11-12 09:53:00,18.0,9.0,30.76,NNW,328,1.0,3.0,67,0.00,,,0.00,,2013-11-12 15:53:00,
2013-11-12 10:23:00,18.0,9.0,30.76,NW,323,0.0,3.0,67,0.00,,,0.00,,2013-11-12 16:23:00,
2013-11-12 10:52:00,19.0,10.0,30.76,NE,45,1.0,3.0,67,0.00,,,0.00,,2013-11-12 16:52:00,
2013-11-12 11:22:00,19.0,9.0,30.75,WSW,257,1.0,3.0,65,0.00,,,0.00,,2013-11-12 17:22:00,
2013-11-12 11:52:00,20.0,10.0,30.74,West,275,0.0,3.0,64,0.00,,,0.00,,2013-11-12 17:52:00,
2013-11-12 12:23:00,22.0,11.0,30.73,West,264,0.0,2.0,62,0.00,,,0.00,,2013-11-12 18:23:00,
2013-11-12 12:42:00,22.0,11.0,30.73,West,273,1.0,2.0,61,0.00,,,0.00,,2013-11-12 18:42:00,
2013-11-12 12:52:00,23.0,12.0,30.72,SW,234,1.0,3.0,61,0.00,,,0.00,,2013-11-12 18:52:00,
2013-11-12 13:22:00,23.0,10.0,30.70,West,271,1.0,3.0,58,0.00,,,0.00,,2013-11-12 19:22:00,
2013-11-12 13:52:00,24.0,11.0,30.68,SW,230,1.0,5.0,57,0.00,,,0.00,,2013-11-12 19:52:00,
2013-11-12 14:21:00,26.0,11.0,30.67,SW,231,2.0,3.0,52,0.00,,,0.00,,2013-11-12 20:21:00,
2013-11-12 14:52:00,26.0,10.0,30.66,SW,215,1.0,8.0,51,0.00,,,0.00,,2013-11-12 20:52:00,
2013-11-12 15:22:00,27.0,10.0,30.64,West,261,1.0,3.0,49,0.00,,,0.00,,2013-11-12 21:22:00,
2013-11-12 15:44:00,27.0,9.0,30.65,WSW,237,1.0,3.0,47,0.00,,,0.00,,2013-11-12 21:44:00,
2013-11-12 15:54:00,27.0,9.0,30.64,WSW,238,0.0,3.0,47,0.00,,,0.00,,2013-11-12 21:54:00,
2013-11-12 16:24:00,27.0,10.0,30.63,West,270,1.0,3.0,48,0.00,,,0.00,,2013-11-12 22:24:00,
2013-11-12 16:54:00,26.0,11.0,30.62,WSW,252,0.0,2.0,52,0.00,,,0.00,,2013-11-12 22:54:00,
2013-11-12 17:23:00,25.0,9.0,30.62,SW,236,0.0,5.0,51,0.00,,,0.00,,2013-11-12 23:23:00,
2013-11-12 17:53:00,25.0,10.0,30.62,WSW,239,0.0,0.0,52,0.00,,,0.00,,2013-11-12 23:53:00,
2013-11-12 18:22:00,24.0,10.0,30.61,WSW,240,0.0,0.0,54,0.00,,,0.00,,2013-11-13 00:22:00,
2013-11-12 18:52:00,24.0,10.0,30.60,WSW,251,0.0,1.0,55,0.00,,,0.00,,2013-11-13 00:52:00,
2013-11-12 19:22:00,23.0,10.0,30.58,SW,236,0.0,0.0,57,0.00,,,0.00,,2013-11-13 01:22:00,
2013-11-12 19:42:00,23.0,11.0,30.58,SW,236,0.0,1.0,59,0.00,,,0.00,,2013-11-13 01:42:00,
2013-11-12 19:52:00,23.0,11.0,30.57,West,263,0.0,2.0,60,0.00,,,0.00,,2013-11-13 01:52:00,
2013-11-12 20:22:00,22.0,11.0,30.57,WNW,283,0.0,0.0,62,0.00,,,0.00,,2013-11-13 02:22:00,
2013-11-12 20:52:00,22.0,12.0,30.57,WSW,248,0.0,0.0,65,0.00,,,0.00,,2013-11-13 02:52:00,
2013-11-12 21:22:00,21.0,12.0,30.57,WNW,290,0.0,0.0,67,0.00,,,0.00,,2013-11-13 03:22:00,
2013-11-12 21:44:00,21.0,12.0,30.56,WSW,239,0.0,2.0,68,0.00,,,0.00,,2013-11-13 03:44:00,
2013-11-12 21:54:00,21.0,12.0,30.56,WSW,241,0.0,0.0,68,0.00,,,0.00,,2013-11-13 03:54:00,
2013-11-12 22:14:00,21.0,12.0,30.55,WSW,241,0.0,0.0,69,0.00,,,0.00,,2013-11-13 04:14:00,
2013-11-12 22:42:00,20.0,11.0,30.54,WSW,241,0.0,0.0,68,0.00,,,0.00,,2013-11-13 04:42:00,
2013-11-12 22:53:00,20.0,11.0,30.53,WSW,241,0.0,0.0,69,0.00,,,0.00,,2013-11-13 04:53:00,
2013-11-12 23:23:00,20.0,12.0,30.52,SE,135,0.0,1.0,72,0.00,,,0.00,,2013-11-13 05:23:00,
2013-11-12 23:53:00,19.0,11.0,30.51,SSE,167,0.0,0.0,71,0.00,,,0.00,,2013-11-13 05:53:00,